STARLINK-6241, 56409

Orbit data source: Space-Track

STARLINK-6241, 56409 is a payload satellite owned by SpaceX/Seattle (US) in LEO that was launched on Thu, 04 May 2023 UTC via an FALCON 9 launch vehicle from the Air Force Eastern Test Range (AFETR). Payload-class satellites include a variety of spacecraft equipped with specific instruments for various scientific and technological missions. These include communications satellites like Starlink; space stations such as the ISS; scientific satellites like the Hubble; Earth observation satellites from companies like Planet Labs, Umbra, and HawkEye 360; GPS; miniature CubeSats for education and research; and military/defense satellites.

Loading next visibility...
Identifier
56409, 2023-061AM
Orbit
LEO
Country
Flag of USUS
Related business
Manufacturer
SpaceX/Seattle
Mission
Operational Commercial Communications
Bus & Motor
STARLINK, Unknown motor
Mass
305 kg wet, ~290 kg dry
Launch date (UTC)
2023-05-04 (3 years ago)
Launch vehicle
FALCON 9
Launch site
Air Force Eastern Test Range (AFETR)
Object type
Payload
Rocket body
Debris
Shape & HBR
Box + 1 Pan, 10.1 m
Radar Cross Section
11.087 m², Large (>1 m²)

Expand to show TLE details & history
Last TLE update: 2 days ago

TLE from 2 days ago
0 STARLINK-6241
1 56409U 23061AM  26171.42379119  .00000382  00000-0  23417-4 0  9993
2 56409  43.0070 327.0920 0001682 274.3586  85.7074 15.27576602172580
Epoch: 2026-06-20T10:10Z
TLE epoch observation values (Epoch: 2026-06-20T10:10:15.558Z)
Latitude
-0°
Longitude
-94.11145°
Altitude
482.749 km
Speed
7.626 km/s
True Right ascension
21h 48m 22s
True Declination
0° 00' 00"
Sunlit
Object was in full shadow at epoch
Visualization orbit readout
Latitude
Unknown
Longitude
Unknown
Altitude
Unknown
Speed
Unknown
Apparent Right ascension
Unknown
Apparent Declination
Unknown
Sunlit
N/A
Visualization observer readout
Local Sidereal Time
21:36:31
Azimuth
Unknown
Elevation
Unknown
Doppler factor
Unknown
Orbital elements
Apogee altitude
486.158 km
Perigee altitude
483.849 km
Semi-major axis
6,863.14 km
Eccentricity
0.00017
Inclination
43.007°
RAAN
327.092°
Arg. of periapsis
274.3586°
True anomaly
85.72662°
Mean anomaly
85.7074°
Eccentric anomaly
85.71701°
Mean motion
3.81732 °/min
Orbital period
94.31 mins
BSTAR
0.000023417
Loading maneuver chart data...
Computing Atmospheric mass density...
Loading historical data...
Loading historical data...
Loading historical data...
Loading historical data...
Loading historical data...
Loading historical data...
Loading historical data...

Documentation

Showing up to 5 results
|